Theta_e
341 343 345 347 347 347 348 348 348 346 344 342 343 343 342 340 340 341 340 340 341 348 347 347 347 348 347 349 348 349 348 347 347 347 347 347 347 346 346 346 345 344 344 343 343 343 343 342 342 344 344 345 346 346 347 347 347 347 346 346 345 345 346 346 346 347 347 346 345 346 346 345 344 345 344 344 343 342 342 342 340 337 338 338 343
341 346 347 348 347 347 347 348 348 346 345 345 344 343 342 342 341 341 341 341 340 348 346 346 348 348 347 349 347 347 348 347 347 346 346 345 345 344 344 344 344 344 343 341 339 340 341 341 341 343 343 344 344 345 345 345 345 344 344 344 343 344 344 344 344 345 346 346 346 345 344 344 343 343 342 342 343 343 341 342 341 338 342 344 344
344 345 348 348 347 347 347 347 347 345 345 344 344 343 342 341 341 340 340 340 341 346 348 348 347 348 348 347 346 347 347 347 346 346 344 344 343 342 343 342 343 343 342 341 341 341 340 340 339 341 342 343 343 343 344 344 343 343 343 343 343 343 343 343 343 342 343 345 343 343 342 342 342 343 345 346 346 345 343 343 342 341 341 342 342
343 345 348 347 345 347 347 347 347 345 344 343 342 341 341 341 340 340 340 340 341 348 348 348 348 347 347 347 347 347 345 345 345 345 344 344 343 341 341 340 341 341 341 339 339 340 340 340 339 341 341 341 341 341 341 342 343 343 343 343 343 343 342 342 342 342 342 343 343 340 339 341 342 343 344 345 345 344 341 342 342 343 342 342 341
344 346 348 348 348 347 347 347 346 345 345 344 343 342 341 341 340 339 340 339 339 343 347 347 347 347 347 347 347 345 344 343 344 343 343 343 341 341 340 343 342 341 340 340 339 338 338 338 338 339 339 338 339 339 339 340 342 342 343 343 343 343 342 342 342 342 343 342 341 339 340 341 342 342 344 345 344 341 340 341 341 342 340 341 340
344 347 348 347 348 347 346 346 346 345 344 343 342 342 342 341 339 339 340 340 340 340 346 346 347 347 347 346 345 345 343 342 342 343 341 340 340 340 342 343 342 342 341 340 339 339 339 339 338 339 337 338 338 338 339 338 340 342 342 343 342 342 342 342 341 341 341 340 340 341 341 341 340 340 342 344 343 340 340 340 340 340 339 340 339
344 347 347 346 347 347 344 346 346 345 345 344 344 343 342 341 341 341 341 341 341 344 345 344 345 347 346 346 344 343 343 343 342 341 341 339 338 341 340 340 343 343 343 341 338 338 341 340 339 337 338 338 338 338 339 339 339 340 342 342 342 342 341 341 340 341 340 339 340 341 340 340 339 340 341 342 342 341 339 341 341 340 339 337 336
346 347 347 347 347 345 343 347 346 345 344 344 343 342 342 341 341 341 341 340 342 346 344 344 344 346 346 347 345 344 342 341 341 340 340 340 340 339 339 340 340 340 341 341 341 340 337 336 337 339 339 339 338 339 339 339 339 339 340 342 342 341 340 340 340 339 339 338 340 340 339 339 340 339 342 342 341 340 340 341 339 338 336 335 334
344 347 347 347 348 343 343 346 346 345 345 345 344 343 342 341 341 341 340 339 341 342 343 343 343 345 347 345 343 342 341 341 340 339 338 338 337 338 340 340 341 339 337 340 340 339 338 338 339 340 340 340 339 338 339 339 339 339 341 341 340 340 339 339 339 338 337 339 338 339 339 339 339 338 340 340 340 340 338 337 338 337 334 334 334
344 347 348 349 349 341 343 345 346 346 345 345 344 343 342 341 341 340 340 339 340 344 343 343 343 344 346 345 343 340 340 340 339 338 337 336 336 339 339 340 340 340 340 340 341 341 341 339 338 338 338 338 339 338 338 338 339 340 340 340 340 339 338 339 338 336 337 338 338 339 338 338 338 337 338 340 339 338 336 333 335 334 333 332 332
344 346 348 349 350 341 345 347 347 346 345 345 344 344 343 341 341 340 340 339 342 344 343 343 343 344 345 345 342 340 339 339 338 338 337 336 336 337 338 338 340 341 341 341 342 342 341 340 340 340 340 340 339 338 339 339 339 339 339 339 338 338 338 338 335 337 337 337 336 336 337 339 338 337 338 337 338 336 335 335 334 334 333 333 333
343 346 348 349 347 341 345 346 346 346 346 345 344 345 344 342 341 340 340 340 342 345 345 344 344 345 344 344 341 338 338 338 337 337 336 336 337 337 338 340 342 341 341 342 341 340 339 339 338 338 339 338 339 339 338 338 339 339 338 337 337 336 337 336 335 336 337 336 336 336 336 335 336 336 337 337 337 335 334 333 333 333 332 332 332
343 345 346 348 350 341 344 346 345 346 346 346 345 345 344 342 341 340 340 340 340 341 342 342 343 344 344 343 341 339 337 337 336 337 336 338 337 337 337 340 341 341 340 339 339 338 338 338 339 340 339 339 338 338 338 338 338 337 336 336 335 335 334 333 335 335 335 336 336 336 337 337 336 336 336 335 335 334 333 333 333 332 332 331 330
343 344 345 347 348 346 340 342 343 345 347 346 345 345 344 343 342 341 340 340 339 340 343 343 342 342 342 342 342 338 337 337 336 336 338 337 337 336 337 338 338 338 339 339 338 338 339 340 339 338 338 337 337 337 338 338 337 336 336 335 334 334 333 332 334 336 336 336 336 336 336 335 334 333 334 334 333 333 332 332 331 329 329 328 329
342 345 345 346 347 347 342 339 342 342 344 346 346 345 344 343 343 341 341 340 340 340 342 341 341 341 341 340 341 339 337 336 335 335 336 335 335 336 337 337 338 338 338 339 338 338 338 338 338 338 337 337 337 337 337 336 336 336 335 334 333 332 331 335 335 335 335 335 335 335 336 334 333 334 333 332 332 331 330 329 329 328 327 327 326
344 344 345 345 347 348 349 343 337 338 341 343 344 344 344 343 343 342 341 341 340 339 342 341 340 340 339 341 341 339 337 335 335 334 336 339 335 335 337 337 337 339 340 339 338 338 338 337 338 337 336 336 337 336 337 336 336 335 334 332 331 330 328 330 334 334 333 333 334 334 334 333 335 333 332 332 332 330 329 328 328 327 327 326 325
343 344 344 344 347 347 348 348 343 334 335 337 339 340 342 344 344 343 342 342 342 341 341 339 338 339 340 342 341 341 339 336 335 335 339 339 338 337 338 336 336 337 336 336 337 338 338 337 336 335 336 337 336 337 336 335 335 333 332 330 330 328 326 327 333 333 332 334 333 333 332 333 333 332 332 330 329 329 329 328 327 325 325 325 326
344 343 343 344 345 346 346 349 347 347 347 340 334 337 340 342 342 342 342 342 342 342 342 343 341 342 342 341 340 340 339 339 339 339 338 338 337 337 337 335 334 337 338 338 337 337 336 336 335 335 336 336 336 336 335 334 333 332 330 329 329 328 327 328 333 332 333 333 332 333 333 332 332 330 330 328 328 327 326 326 326 325 326 325 323
342 342 343 343 343 346 346 346 346 346 345 344 345 345 334 338 339 339 340 340 340 340 339 337 338 340 339 338 337 335 334 334 335 335 335 335 334 333 337 338 334 338 337 337 336 336 335 335 335 336 335 335 335 334 333 333 332 330 329 327 324 324 324 329 332 332 332 332 332 332 331 331 329 329 328 327 327 327 326 326 325 324 323 323 322
341 341 341 343 344 344 345 345 345 345 346 346 345 346 336 332 335 336 337 338 337 337 334 332 331 333 333 332 329 334 331 335 326 332 329 333 332 331 332 334 336 336 336 335 335 335 335 335 335 335 335 334 333 332 331 330 329 328 327 325 324 323 331 331 332 331 331 331 331 330 330 330 328 328 327 327 326 325 326 326 324 323 322 322 322
339 340 341 341 343 343 343 344 344 344 345 345 345 345 344 331 332 331 332 334 334 333 329 324 323 323 326 323 327 337 337 336 336 334 327 337 324 326 331 335 337 337 336 334 335 335 335 335 335 334 332 330 327 325 326 327 327 326 324 324 322 331 332 332 331 330 331 331 331 330 330 330 328 328 327 326 325 326 325 323 322 322 322 322 321
336 337 340 341 342 342 342 343 343 344 345 344 344 344 345 339 343 343 343 337 330 327 334 338 334 338 324 333 338 336 335 336 335 332 334 335 333 324 329 334 336 335 335 334 334 334 334 334 333 331 330 327 325 331 327 321 321 323 321 320 330 332 332 332 331 331 331 332 330 329 331 328 326 326 324 325 325 323 323 322 322 322 321 321 320
334 336 338 340 341 341 342 342 343 343 343 344 344 344 344 343 342 342 342 333 337 340 340 338 338 338 338 338 335 335 335 334 334 332 334 326 333 324 328 330 332 332 335 335 334 334 333 333 330 328 326 324 331 332 332 331 329 317 319 330 331 331 332 331 331 330 331 331 331 328 331 328 327 326 326 325 324 323 323 322 321 321 320 320 320
334 335 337 339 341 341 341 342 342 343 342 342 343 343 343 342 341 341 340 339 339 339 340 339 339 338 338 336 334 336 335 334 328 326 329 335 332 323 323 324 326 326 329 332 331 331 329 327 325 323 325 327 332 330 331 330 331 331 331 330 330 332 331 331 330 330 331 330 331 326 329 327 327 327 327 325 323 323 322 321 321 320 319 319 320
336 336 337 337 339 340 341 342 342 342 342 341 341 341 342 341 341 340 340 339 338 337 338 339 338 338 337 335 336 336 335 333 332 331 331 332 332 334 333 333 334 335 327 333 332 331 330 330 327 326 330 330 330 330 330 329 330 330 329 329 330 331 331 330 330 329 330 331 330 324 327 329 328 326 326 324 322 323 321 320 320 320 319 319 319
336 335 335 337 338 340 340 341 342 341 341 341 341 341 341 340 339 339 339 339 338 337 336 337 337 338 336 336 335 335 334 333 333 332 331 332 332 330 330 330 331 332 332 331 330 330 329 329 329 329 328 328 329 329 329 328 328 328 328 329 329 330 330 329 329 329 330 330 329 322 325 328 327 325 325 323 323 321 320 321 320 319 319 318 318
335 335 336 337 338 339 340 341 340 341 341 342 341 341 340 340 339 339 338 337 337 337 336 335 336 336 336 336 333 332 332 331 332 332 330 331 331 331 330 330 330 329 330 329 329 329 328 326 327 327 326 326 326 327 327 327 328 328 328 329 329 329 329 329 329 328 329 329 324 316 322 327 326 325 325 326 324 322 320 320 319 319 318 318 319
335 335 336 337 337 338 340 340 340 340 340 341 340 340 340 339 339 339 338 335 336 336 336 336 336 335 335 334 332 333 332 331 331 331 331 331 330 331 331 330 329 329 330 329 328 327 325 325 326 326 325 325 325 326 326 326 326 327 328 328 328 328 328 328 328 328 328 328 328 321 319 323 325 328 325 324 324 323 321 320 320 320 319 318 318
333 334 335 336 337 338 339 339 339 339 340 340 339 340 340 339 339 339 338 335 336 336 336 336 335 334 334 335 333 332 331 331 331 330 331 330 331 331 330 329 329 328 328 327 327 325 324 324 325 325 325 325 325 325 324 325 326 326 326 327 327 327 327 328 328 328 327 327 327 324 319 322 325 327 325 325 325 324 323 321 320 320 321 319 318
333 334 335 336 337 338 338 338 339 339 339 339 339 340 340 339 338 338 338 337 336 336 336 335 334 334 333 333 333 332 331 330 330 330 330 330 331 330 329 329 327 327 327 326 325 324 324 323 324 324 324 324 324 324 324 324 324 324 325 326 326 326 327 327 327 327 327 326 326 326 315 319 322 328 326 325 326 324 323 323 322 321 319 318 318
333 333 334 335 337 337 338 338 339 338 340 339 339 339 339 339 338 339 339 337 337 336 335 334 335 334 333 333 332 333 331 331 330 330 329 330 329 329 328 328 326 326 326 326 325 324 323 323 323 323 323 323 323 322 323 323 324 323 322 323 324 324 324 325 325 326 325 325 325 325 325 316 319 323 328 323 324 323 323 323 322 321 320 319 318
332 333 334 335 336 337 337 338 338 338 338 338 338 338 338 339 339 339 339 339 337 336 335 334 332 333 334 334 333 332 331 330 331 330 329 329 328 328 329 327 326 325 325 325 323 324 323 323 322 322 323 323 322 321 322 322 322 322 321 322 322 322 323 323 323 323 323 324 324 325 325 323 317 319 323 326 324 323 323 323 322 321 320 320 319
334 335 335 335 334 337 336 337 338 338 337 338 338 338 339 339 338 338 338 338 338 337 335 334 333 333 332 332 332 332 330 329 329 330 329 329 328 328 328 327 327 324 323 323 322 322 320 320 320 319 320 320 320 320 320 321 321 320 320 320 319 320 320 320 321 320 320 321 322 323 324 325 324 317 316 320 325 324 323 321 321 321 321 321 320
334 335 335 334 334 336 337 338 337 337 337 338 339 339 339 339 338 338 338 338 338 338 336 335 333 332 332 332 331 329 327 328 328 329 329 328 328 328 328 327 326 323 321 321 321 320 320 320 319 318 316 318 319 320 319 319 319 319 319 318 317 318 318 318 318 318 318 319 319 320 321 322 323 323 322 317 319 323 325 323 322 321 321 321 320
334 334 334 335 334 335 335 335 337 337 337 337 337 338 339 339 338 338 337 338 338 337 337 337 334 333 333 332 332 330 327 327 327 326 326 325 325 326 327 327 326 323 321 319 320 320 320 319 318 317 318 317 319 320 319 319 319 317 318 317 317 316 316 317 317 316 316 317 316 317 317 318 320 321 322 322 314 315 320 324 322 321 321 321 320
332 333 334 335 334 334 335 335 336 337 337 336 336 337 339 340 339 332 338 338 337 337 338 338 336 335 333 333 332 332 331 330 329 328 326 326 325 325 326 327 326 322 321 318 318 318 318 319 318 319 317 317 318 318 318 318 318 317 318 315 316 314 315 316 315 315 315 314 314 315 315 316 317 318 316 320 320 319 314 319 323 323 322 322 321
331 332 333 333 334 335 333 334 333 335 336 337 337 336 336 338 339 338 338 338 338 338 338 338 337 336 335 334 334 333 333 333 332 330 328 328 327 327 328 328 326 322 321 318 317 319 318 317 317 317 318 317 317 317 316 316 316 315 315 314 314 313 313 314 313 313 312 312 313 312 312 313 313 308 314 317 317 320 314 313 318 320 320 321 321
330 331 332 332 333 334 334 333 334 334 333 334 337 338 336 335 336 337 336 338 338 339 339 339 337 337 336 334 334 333 332 332 331 330 329 330 330 329 328 326 323 321 320 319 318 319 319 318 317 316 316 316 315 315 315 314 313 311 310 311 311 310 311 311 311 307 310 311 311 311 311 311 312 312 312 313 311 312 316 315 313 314 313 317 322
327 328 330 331 332 333 333 333 333 334 333 334 334 336 338 339 338 336 336 336 336 337 339 339 339 339 337 336 334 333 331 330 329 329 329 330 329 327 326 325 323 321 320 319 319 318 317 317 316 316 314 314 314 315 315 312 310 308 307 307 308 308 309 308 306 307 308 309 311 310 309 309 309 309 310 310 308 307 309 314 318 318 318 313 320
325 325 326 328 330 331 332 332 332 333 333 333 333 333 333 335 333 335 335 334 335 335 338 338 337 337 337 335 334 333 331 329 330 330 328 326 326 325 324 324 323 322 321 319 318 316 314 313 314 314 312 310 309 311 311 309 307 305 302 303 304 305 305 305 304 304 305 306 307 309 309 310 309 309 308 308 307 306 306 309 310 313 316 316 315
323 324 324 325 327 328 329 329 331 331 331 331 332 331 330 330 331 333 333 334 334 335 335 336 336 337 337 335 334 332 331 330 330 331 328 323 324 324 322 321 321 320 320 319 318 317 314 311 310 310 310 309 308 308 307 307 304 303 303 303 303 304 304 304 303 304 304 305 305 306 308 308 309 308 308 308 307 306 306 305 305 305 306 310 313
317 321 322 324 325 326 327 328 330 330 329 330 330 331 331 331 330 329 332 334 334 333 333 333 334 336 336 336 336 335 334 334 332 332 330 329 326 325 323 321 319 318 320 320 316 311 311 309 309 309 309 308 307 307 304 305 303 304 304 303 304 305 305 305 303 304 304 304 304 305 306 307 308 307 306 306 307 306 305 304 302 301 302 304 308
312 316 320 323 323 324 325 326 328 328 329 329 329 329 331 331 331 330 330 330 334 336 336 336 336 334 334 335 335 337 336 335 333 329 328 329 328 325 323 323 321 319 317 316 315 314 312 311 310 310 308 308 307 306 304 306 307 307 308 303 301 302 307 306 307 307 306 305 304 304 305 306 306 307 305 304 304 305 305 304 303 302 300 301 302
307 309 313 318 320 322 323 324 325 327 327 328 327 330 330 332 332 332 333 333 330 334 334 335 335 335 334 336 337 337 335 332 332 330 329 328 327 325 326 325 322 319 317 316 316 315 314 313 310 309 309 306 305 304 305 306 308 308 302 300 301 302 302 307 310 310 308 307 305 304 305 304 305 304 304 302 303 303 304 304 302 301 301 301 302
307 307 309 312 315 319 321 323 324 325 326 326 326 328 329 330 330 330 330 328 326 327 327 327 329 331 332 333 333 335 336 335 334 332 328 329 328 327 327 325 321 320 319 319 319 318 316 314 311 309 308 308 306 304 303 305 306 310 309 302 299 297 301 307 306 308 310 307 306 304 304 304 303 303 301 300 301 302 302 301 301 301 301 301 301
305 307 309 310 312 315 318 321 322 323 324 325 326 326 326 325 325 323 322 323 323 323 323 324 327 328 329 333 335 336 335 335 335 334 331 326 327 327 326 325 322 320 319 320 321 319 315 312 311 311 310 310 311 306 304 303 305 307 310 311 310 307 306 304 304 305 304 308 308 306 304 303 303 300 299 299 299 300 301 300 301 302 302 302 302
306 306 306 307 310 314 317 319 320 322 324 325 325 324 324 324 324 323 324 323 322 323 326 327 326 327 329 330 331 332 333 333 334 335 333 330 329 329 327 325 325 323 320 319 318 317 316 315 314 313 313 311 310 308 307 303 303 305 308 309 310 309 305 304 303 307 304 304 302 303 304 305 302 300 299 299 299 299 300 299 299 300 301 301 301
307 306 306 307 309 312 315 317 319 321 323 323 323 324 323 323 323 323 323 323 323 323 325 325 326 327 327 327 328 329 331 331 331 333 333 333 331 330 329 327 326 326 322 319 318 318 318 318 315 313 312 311 310 308 307 306 303 304 304 305 306 307 307 304 302 301 302 299 304 302 300 301 302 300 300 299 298 299 299 299 298 298 299 300 299
307 309 308 308 310 313 315 317 319 320 321 322 322 323 323 324 323 323 322 323 323 324 325 325 325 325 324 325 326 327 328 329 330 331 332 332 330 330 329 328 327 326 323 322 321 320 318 317 315 313 310 309 308 308 309 310 307 306 302 301 302 302 304 304 302 299 297 297 300 303 306 302 298 298 299 299 298 297 298 299 300 298 297 298 298
307 308 308 310 311 313 315 316 318 319 319 320 321 322 323 323 322 322 322 322 322 322 323 322 322 322 322 323 324 324 325 326 327 328 328 329 330 330 330 329 327 325 321 323 321 320 319 319 319 317 313 310 309 309 308 309 308 306 305 305 301 301 300 301 301 300 299 299 298 301 305 305 303 301 297 297 296 296 297 299 299 297 297 298 298
308 310 311 312 313 315 315 316 316 316 317 319 320 320 322 322 322 322 322 321 322 321 319 318 318 317 316 319 321 321 323 323 324 325 325 325 325 325 324 326 327 327 324 323 322 322 321 321 320 318 315 311 309 308 307 306 308 308 306 306 304 302 301 301 302 303 301 299 299 299 300 301 301 302 303 299 299 298 298 298 298 297 297 298 298
Wind_Speed
7 8 7 9 6 8 7 7 5 8 11 11 12 11 10 10 10 10 10 10 10 14 12 9 10 12 13 13 14 14 15 16 15 14 15 15 15 15 15 15 16 17 17 18 17 16 15 15 16 16 15 15 16 17 17 18 18 18 18 18 18 18 18 17 15 14 15 18 19 18 18 18 18 18 17 17 16 13 11 12 13 13 12 15 19
11 8 6 8 7 8 8 7 5 10 11 12 12 11 10 11 10 9 9 8 7 14 11 10 12 12 13 14 15 15 14 15 15 16 15 16 16 16 15 15 16 17 17 16 15 16 16 16 16 16 15 14 16 17 17 17 18 18 18 18 18 18 17 16 15 14 16 16 16 16 18 19 17 18 18 18 17 15 12 12 13 14 12 19 20
11 8 7 9 7 8 8 8 10 10 11 13 11 10 10 10 10 9 9 8 7 12 13 12 11 13 14 15 15 16 16 16 17 16 16 15 14 14 14 14 16 17 18 16 17 17 16 16 15 15 16 16 16 17 16 17 17 17 17 17 17 17 17 16 15 14 11 11 19 17 15 17 17 17 17 18 18 18 15 16 18 16 14 19 19
11 8 8 10 5 5 8 7 9 10 12 13 11 10 10 10 10 10 10 9 10 16 13 13 13 14 14 15 16 15 15 15 15 15 16 15 14 14 14 13 15 16 16 15 17 17 17 17 17 17 15 16 16 15 16 16 16 17 17 17 17 16 16 15 14 13 10 8 9 11 11 12 14 18 19 19 20 19 17 19 19 20 20 20 21
10 7 8 9 9 8 8 5 10 10 11 11 10 10 11 11 10 10 12 10 8 10 15 14 14 14 14 15 16 16 15 15 15 14 14 14 13 13 13 17 17 16 16 16 16 16 16 16 16 16 15 15 15 15 14 15 16 16 16 16 16 16 15 14 13 11 9 9 8 12 11 12 12 18 19 20 19 17 18 19 20 21 20 22 22
9 8 8 9 9 9 5 3 9 10 11 11 10 10 10 10 11 10 10 10 9 8 14 13 14 13 13 15 16 15 14 13 14 14 14 13 12 11 15 15 15 16 16 17 16 16 16 16 16 16 16 15 15 15 15 15 15 16 16 16 16 15 14 13 12 10 10 9 11 10 11 11 11 12 19 19 19 17 19 20 19 19 20 22 22
10 7 7 8 7 9 5 4 11 10 11 10 10 10 9 9 9 11 11 10 8 12 11 11 13 14 13 15 15 14 13 14 14 13 13 13 11 14 14 13 16 16 16 16 15 15 15 15 15 15 15 15 15 15 15 15 15 15 15 15 15 15 14 13 10 7 5 8 9 9 9 11 11 9 17 19 19 19 20 21 21 20 22 21 19
8 6 7 7 7 9 5 5 9 10 11 10 10 10 9 9 9 10 10 8 10 12 11 10 11 14 13 15 15 14 13 13 13 14 12 11 12 13 13 13 14 14 14 14 15 15 13 13 14 15 15 14 14 14 15 15 15 15 15 15 15 14 13 11 9 8 8 10 9 8 9 10 12 10 16 18 19 19 19 21 21 20 19 17 13
9 8 8 7 7 10 6 4 10 10 10 10 10 10 9 9 9 9 8 8 10 10 10 10 11 13 14 15 15 13 12 12 12 12 13 11 11 11 13 13 13 12 12 14 13 14 13 13 14 14 15 15 14 15 15 15 15 15 15 15 14 14 12 9 5 6 10 9 9 9 10 11 11 11 15 16 17 18 17 17 18 19 18 15 20
9 8 8 7 8 8 6 5 9 10 10 11 10 10 10 9 9 8 7 6 8 11 10 10 11 12 14 14 14 13 12 11 12 12 12 11 10 12 12 12 11 12 13 13 14 14 14 13 13 14 14 14 14 14 14 14 15 15 15 15 14 13 10 7 9 11 9 10 11 11 10 10 11 11 15 18 20 21 20 17 14 14 15 17 18
9 7 7 7 10 9 6 8 8 8 10 10 10 10 10 10 9 8 7 7 9 11 10 10 11 11 12 14 13 13 12 11 11 11 10 10 12 11 11 9 12 13 12 13 14 14 14 14 13 14 14 14 14 14 14 14 14 14 15 14 13 11 8 5 8 9 9 10 10 10 10 10 10 10 16 17 18 19 14 14 14 15 18 18 17
9 7 7 6 10 8 6 6 8 9 9 9 9 9 9 9 9 8 7 7 9 11 11 11 11 11 12 12 13 12 12 11 10 11 10 10 11 11 10 12 13 12 13 13 14 13 13 13 13 13 13 13 14 14 14 14 15 14 13 13 13 11 9 8 9 9 9 10 10 10 11 11 11 12 16 16 16 16 15 16 17 16 15 16 17
9 7 6 7 10 7 6 6 7 8 8 9 9 9 9 9 9 8 7 7 9 10 11 11 12 11 12 12 13 12 12 11 9 9 10 12 11 10 10 12 12 12 12 12 13 13 13 13 13 13 13 13 13 14 13 14 14 13 13 12 11 10 8 5 9 9 9 9 9 9 10 10 11 15 15 15 15 14 16 16 15 15 15 15 15
9 8 7 7 8 9 6 6 7 7 6 8 9 8 8 8 9 8 8 7 6 8 11 11 11 11 10 11 12 11 10 10 9 9 12 11 10 9 10 9 10 12 12 12 12 12 12 12 13 12 12 12 12 13 14 14 14 13 12 11 9 7 8 9 9 9 8 9 9 9 9 8 10 15 15 15 15 15 15 15 16 15 14 15 15
9 9 8 7 8 10 7 5 7 6 6 6 7 8 8 8 8 8 8 8 6 9 11 10 10 9 10 10 11 11 10 10 8 8 10 9 9 10 9 9 10 10 11 11 12 12 12 11 11 12 12 11 12 13 14 14 13 12 11 10 8 7 6 7 6 7 7 7 7 8 8 8 12 13 12 13 14 14 15 15 15 15 14 14 14
9 9 8 7 7 8 9 6 7 6 6 6 6 7 6 7 8 8 8 8 7 7 11 10 9 8 9 11 10 11 10 9 8 6 6 6 9 9 9 8 10 11 11 12 11 11 11 11 11 11 11 11 11 11 12 13 12 12 11 10 8 8 9 3 6 6 6 6 6 8 9 8 11 12 12 12 14 14 15 15 15 15 14 13 12
9 9 9 8 7 8 8 8 7 7 6 6 6 6 6 5 6 7 7 7 6 7 10 9 8 8 9 10 10 9 8 8 8 6 8 10 12 10 6 5 9 10 10 10 11 11 11 10 10 10 10 11 11 11 11 12 12 11 10 10 8 7 7 5 5 6 6 6 5 5 7 8 11 12 12 13 11 12 12 13 14 13 12 13 15
9 10 9 9 8 7 8 8 10 9 9 7 6 5 6 5 5 5 4 4 5 5 6 6 7 7 10 9 7 8 8 7 6 7 9 10 9 8 6 5 8 10 11 10 11 10 10 9 9 9 10 11 10 10 10 10 10 10 10 9 7 7 6 4 5 5 6 5 6 7 7 7 9 11 12 11 12 13 13 11 11 12 12 13 12
9 10 9 9 9 8 8 8 9 9 9 8 8 7 5 6 6 4 4 4 4 6 6 7 8 9 10 9 8 8 7 6 6 8 8 7 7 7 6 4 6 12 10 9 9 9 9 9 9 9 10 10 10 10 10 10 9 9 9 8 7 6 1 2 5 5 5 4 5 6 7 9 11 10 11 11 11 11 12 11 12 11 11 10 11
8 9 9 9 9 8 7 7 8 8 8 7 7 9 8 7 7 5 5 5 5 7 6 7 8 9 9 9 9 8 6 6 6 7 8 7 6 8 7 4 3 10 10 9 8 8 8 9 9 9 10 9 10 11 10 9 9 8 7 6 5 3 2 3 5 4 3 5 6 7 8 9 10 9 9 11 10 10 12 12 11 11 10 10 10
6 8 9 9 10 9 9 7 8 8 8 7 6 7 8 8 6 6 5 5 6 7 8 7 7 7 8 8 8 7 6 6 6 6 6 6 8 9 6 4 6 6 8 8 8 8 9 9 9 9 9 10 10 11 9 9 8 7 5 5 2 1 3 3 2 3 4 5 5 7 7 9 10 10 11 10 10 11 10 10 9 9 9 10 10
8 8 10 10 10 9 10 10 8 9 8 6 5 5 6 7 8 7 6 6 6 7 6 5 6 6 7 7 5 5 5 5 4 6 5 8 7 7 6 5 6 6 8 8 8 8 8 9 9 9 9 9 6 6 6 7 7 5 4 1 2 2 2 2 2 3 4 5 5 7 6 5 6 8 8 9 10 10 10 8 7 8 9 9 9
10 9 9 11 10 9 10 11 10 9 8 7 5 6 7 7 7 7 6 6 7 6 6 6 6 6 7 6 5 4 4 4 4 3 4 6 7 6 6 6 6 6 5 6 7 8 8 8 7 7 7 4 3 4 4 4 4 3 3 3 1 1 2 2 2 3 3 5 6 5 4 9 9 9 9 9 8 7 9 10 9 9 8 7 8
11 10 10 9 10 10 11 11 11 11 9 8 7 6 6 7 6 6 6 6 7 6 5 6 5 5 5 5 4 4 5 4 6 7 8 6 6 7 8 8 7 7 6 6 8 9 10 8 6 4 4 3 3 3 3 3 3 3 2 1 1 3 3 2 2 2 3 4 6 2 2 3 8 11 10 8 7 8 7 7 8 8 6 7 7
9 9 8 9 11 11 10 10 11 10 10 9 8 7 8 7 6 7 7 6 7 7 6 5 5 5 5 4 3 5 4 4 6 5 5 5 6 5 5 5 5 5 4 5 5 4 4 4 4 4 3 2 2 2 2 2 2 3 2 2 2 3 2 2 2 3 3 4 6 2 3 1 11 8 8 8 4 9 8 7 7 7 7 6 8
8 9 10 10 11 11 11 9 10 10 10 9 9 7 8 8 7 7 7 7 7 6 6 5 4 5 5 4 4 5 5 4 5 5 4 5 5 5 4 4 5 5 6 4 4 4 3 3 3 3 2 1 1 1 0 1 2 2 2 2 2 3 3 3 3 3 4 5 5 2 5 4 9 5 6 3 6 6 6 7 7 6 7 6 4
10 11 10 10 10 11 11 10 10 10 12 10 7 8 8 8 8 8 8 8 7 7 6 6 5 5 5 5 5 5 5 5 5 5 5 5 5 5 5 5 5 5 5 5 4 3 3 3 3 2 1 1 1 1 1 0 0 2 2 2 2 3 4 4 4 4 4 5 4 1 3 5 6 8 11 10 8 7 6 6 6 6 5 4 7
11 12 11 11 10 13 12 11 10 10 10 9 9 9 8 7 8 7 7 7 7 7 7 6 7 5 5 6 6 5 5 5 5 5 5 5 5 5 4 4 4 4 4 3 4 3 3 2 2 2 2 2 2 1 2 2 2 1 2 3 3 4 4 5 5 5 5 5 6 5 2 5 5 4 8 7 6 9 8 6 7 6 7 6 6
12 13 11 12 13 11 13 12 11 11 10 10 10 9 9 9 8 8 9 7 8 7 7 7 6 7 6 5 6 5 5 5 5 5 5 5 5 5 5 5 4 4 4 4 4 4 3 3 3 3 3 3 3 3 2 2 3 3 3 3 4 4 4 5 5 6 5 6 6 5 3 4 5 8 10 10 11 10 8 9 7 8 9 7 6
13 12 12 12 12 13 13 14 13 11 10 11 10 9 9 9 9 9 8 7 8 8 8 7 7 7 7 7 6 6 5 5 5 5 5 6 5 5 5 5 5 4 5 4 4 4 4 4 3 3 3 3 3 2 3 3 3 2 3 3 4 5 4 4 4 5 5 5 5 5 5 4 5 6 9 11 12 9 10 12 10 9 7 7 7
12 13 13 12 11 12 13 12 12 10 10 11 11 11 10 10 10 9 9 9 9 9 8 8 8 8 7 8 8 6 5 5 5 6 5 5 6 6 6 5 5 5 5 5 4 4 4 4 4 4 4 4 4 3 4 4 4 3 3 3 3 3 4 3 3 4 5 5 5 6 6 4 5 7 7 8 8 9 13 12 10 10 10 10 9
14 14 12 11 12 13 14 13 13 11 10 11 10 10 10 10 10 10 9 9 8 8 8 9 9 8 7 8 8 7 6 5 6 6 6 6 6 6 5 5 5 5 5 4 5 4 4 4 3 2 2 3 3 3 4 4 4 4 3 4 4 4 4 4 4 4 4 4 4 5 6 6 5 7 6 8 10 11 12 12 13 12 11 11 11
10 12 12 12 13 13 13 14 13 12 12 11 11 10 11 10 10 9 8 7 8 8 9 10 9 8 5 6 6 7 5 5 5 6 6 5 5 6 6 6 5 5 5 5 5 4 4 4 4 3 4 4 4 4 3 5 5 4 4 4 4 4 4 4 4 3 4 3 3 3 6 6 8 7 8 8 11 12 12 12 13 12 12 13 12
9 9 12 13 11 9 10 10 13 13 13 12 11 10 9 9 10 11 9 9 7 8 7 9 10 9 9 7 6 6 5 5 5 6 6 6 6 6 6 6 5 5 5 5 5 5 6 5 5 5 5 6 6 6 6 7 6 5 5 5 5 5 4 5 4 4 4 4 4 4 4 5 6 7 8 9 10 10 14 14 12 11 13 13 13
9 9 13 14 13 11 9 10 11 14 12 13 11 11 9 10 10 10 11 10 9 9 8 7 8 8 8 10 9 8 8 7 6 6 6 6 6 6 7 6 6 6 6 6 6 6 6 7 6 7 6 7 8 7 8 7 7 7 7 5 6 5 5 6 5 5 5 5 4 5 5 4 5 5 5 6 8 12 12 11 14 14 15 15 14
13 11 11 11 13 13 12 12 12 14 14 14 14 14 12 10 9 9 8 11 10 10 10 10 10 9 10 10 10 10 10 11 10 10 8 8 8 8 9 9 8 7 7 7 7 7 7 6 7 8 8 8 7 7 6 7 7 7 6 5 5 5 6 6 6 6 6 4 5 5 4 5 4 5 5 6 7 10 13 11 12 14 16 17 16
11 12 11 12 12 13 13 14 14 14 14 14 14 14 13 13 13 12 11 9 9 10 10 10 10 10 10 10 12 12 12 12 12 11 10 9 9 10 9 9 7 8 8 8 8 8 8 7 7 8 8 7 8 8 6 7 6 6 5 5 5 5 6 6 5 6 4 5 6 5 5 5 4 4 5 6 4 5 9 12 10 13 14 17 18
11 12 11 11 12 12 12 13 13 13 12 12 13 13 12 13 12 11 11 11 12 11 10 9 12 11 10 10 10 10 8 9 9 8 9 9 10 9 8 9 8 7 6 7 8 8 8 8 9 8 8 8 7 8 8 6 3 3 4 5 5 5 5 4 4 4 5 6 6 6 5 5 5 6 5 5 3 4 4 8 12 12 13 13 15
9 11 11 10 10 10 10 12 13 13 13 12 12 13 13 11 10 10 11 12 11 11 12 11 10 9 9 12 13 11 9 9 8 8 9 10 7 5 6 7 7 8 8 9 9 9 9 9 10 8 7 7 7 7 6 4 3 3 4 4 5 6 5 4 4 5 6 6 7 6 4 6 6 6 6 5 3 3 4 5 5 6 8 14 15
9 9 11 11 11 11 11 11 13 14 13 12 11 11 11 9 9 10 10 11 11 8 8 9 8 8 7 8 11 11 10 8 11 11 8 6 5 5 6 6 7 8 8 9 9 9 10 9 10 8 7 5 3 3 3 3 2 2 3 5 5 5 6 6 5 6 6 6 6 6 7 7 7 7 7 5 5 4 4 5 5 4 5 8 15
10 10 10 12 12 12 11 15 12 13 12 12 12 12 12 12 11 9 10 9 10 12 10 9 8 8 9 8 9 9 10 9 12 13 11 8 8 7 6 6 5 6 7 9 9 8 7 5 5 4 6 6 5 4 2 3 1 3 3 6 7 6 8 8 9 9 9 8 6 7 7 7 7 7 7 6 6 6 6 5 5 4 5 4 6
10 11 13 13 11 12 13 12 10 11 13 13 12 12 12 11 10 11 12 9 8 8 11 11 12 9 11 11 10 9 11 12 11 12 11 12 14 13 10 9 9 8 9 7 4 4 3 3 4 5 6 8 7 6 5 6 3 8 4 3 5 6 10 10 11 13 11 8 8 8 9 9 9 8 6 7 8 8 7 6 4 6 6 4 5
6 9 10 9 10 11 11 11 10 11 11 12 12 12 12 11 11 9 9 10 10 9 8 5 6 8 11 12 12 12 12 11 8 9 7 12 13 10 9 9 10 9 8 8 6 7 8 10 10 9 7 7 7 4 7 10 8 4 1 3 7 5 6 8 11 15 12 11 10 11 11 10 11 8 6 6 7 7 7 6 6 5 5 6 4
5 6 7 9 8 10 10 10 10 10 9 10 11 12 11 10 11 10 9 9 6 4 8 10 10 11 13 11 11 9 9 11 9 8 9 11 9 10 9 9 10 10 10 10 10 11 10 11 11 10 8 6 7 6 8 10 10 6 4 7 2 1 8 11 9 10 13 14 13 13 10 10 10 8 6 7 7 7 7 6 7 6 6 6 7
6 6 6 7 6 9 9 9 9 9 9 9 11 11 9 8 6 1 1 1 0 3 3 4 6 8 9 11 11 9 9 9 10 13 10 12 11 9 8 7 8 9 10 11 11 12 12 11 10 9 11 11 8 6 7 10 12 11 9 4 1 3 9 7 4 7 7 9 12 11 10 10 11 10 7 6 5 5 6 7 8 7 8 8 8
5 5 5 7 7 7 8 8 8 8 8 9 10 10 10 10 8 7 7 8 9 8 11 12 9 8 8 8 8 10 12 11 11 10 10 10 10 11 8 8 8 7 8 9 10 8 8 8 11 12 13 13 12 9 8 9 13 14 14 11 9 8 4 1 2 6 4 5 5 8 10 11 9 6 7 10 12 11 8 6 7 9 9 9 8
3 2 4 6 7 7 6 7 7 6 7 8 10 10 11 11 12 12 10 10 10 10 9 10 11 10 10 12 12 13 13 13 12 10 10 11 11 11 11 8 8 8 8 8 8 7 6 9 10 11 12 11 11 10 10 7 7 10 12 15 11 4 4 4 10 8 11 3 4 6 8 9 8 8 10 12 12 10 11 8 8 9 8 7 7
1 2 3 4 6 7 6 7 6 6 6 7 10 11 10 10 11 11 10 11 11 10 9 9 10 9 9 11 10 10 10 11 12 12 12 10 10 12 12 12 12 12 8 10 11 11 11 9 8 8 7 7 11 11 8 6 10 10 11 12 12 10 6 5 3 7 9 11 9 4 7 8 6 9 11 10 10 11 10 8 9 9 6 6 6
1 1 2 3 4 4 6 6 6 6 6 9 10 11 10 9 10 10 11 10 10 9 7 7 7 8 10 10 10 10 10 9 9 11 11 13 10 8 7 8 10 11 9 11 9 9 10 9 9 9 10 10 11 10 10 12 11 11 7 9 9 9 8 7 3 3 8 10 13 11 12 4 5 9 10 11 10 9 11 10 12 10 10 8 8
2 1 2 2 3 4 5 6 5 5 6 9 9 10 11 9 10 10 11 9 8 9 7 7 7 8 9 9 9 9 8 8 10 11 9 9 9 8 10 11 9 8 7 10 11 11 12 12 13 13 12 11 8 9 12 11 7 5 6 5 8 7 6 8 9 8 8 11 15 10 11 11 10 6 8 10 12 11 12 11 10 12 9 9 9
2 3 3 3 4 5 6 7 6 5 6 8 9 10 10 9 9 9 10 9 8 8 6 6 6 5 6 8 8 8 7 8 7 8 8 7 7 6 7 7 6 8 8 6 8 9 9 10 10 10 10 10 8 9 11 12 9 8 9 8 7 7 9 11 11 11 11 8 10 12 12 11 13 14 8 9 10 11 10 10 10 9 9 11 10
Wind_Direction
177 164 155 128 154 149 138 121 103 107 102 95 86 87 91 96 92 86 92 106 112 108 96 104 94 90 94 89 86 86 88 89 91 94 89 84 81 79 77 75 75 71 72 71 75 76 76 80 77 76 77 74 76 72 69 70 67 64 66 64 62 60 60 58 56 61 67 79 82 83 81 81 80 82 82 79 75 69 70 79 82 80 79 76 72
159 161 155 148 159 151 137 123 124 111 106 101 97 98 99 100 101 102 109 100 94 95 98 96 97 101 92 88 89 86 88 89 85 80 77 75 75 73 72 75 77 76 75 74 74 77 79 79 80 76 78 80 78 74 69 67 62 64 65 64 62 60 59 57 52 57 71 71 74 79 81 82 82 84 83 81 75 68 66 69 74 81 77 75 74
148 153 155 136 143 147 134 130 120 112 107 98 98 96 99 99 102 103 98 103 105 90 84 91 100 99 96 90 88 88 82 81 82 80 79 75 73 76 78 78 78 79 77 78 78 78 80 81 78 76 79 77 76 73 71 68 64 65 65 64 62 60 58 56 54 53 48 67 87 85 88 78 80 82 83 83 76 66 61 67 71 79 84 84 80
145 154 146 129 148 143 137 136 116 110 104 102 108 107 103 102 99 100 95 103 101 98 98 94 97 99 97 92 88 85 89 87 83 81 80 80 80 79 82 85 85 82 80 81 81 80 80 79 82 82 79 80 78 77 76 69 67 66 64 64 62 61 60 59 58 56 47 40 101 104 83 87 85 83 84 82 78 74 75 78 82 83 85 81 79
145 155 144 141 152 145 145 135 119 114 109 114 114 112 111 108 108 111 114 108 96 109 99 95 95 94 93 93 88 87 86 88 87 85 83 83 86 89 90 87 86 85 84 82 85 87 87 87 86 86 85 84 83 84 80 74 70 69 66 65 64 64 64 63 63 59 58 52 75 82 87 84 82 82 84 83 80 80 80 79 79 80 82 81 78
147 153 147 144 146 143 129 174 129 120 117 118 116 112 106 107 110 102 102 107 101 85 79 92 94 96 100 94 91 90 90 91 92 91 89 86 85 89 92 92 91 91 88 84 82 86 88 90 88 86 86 85 84 82 84 85 78 72 70 68 68 67 65 64 62 70 77 74 74 87 87 85 82 81 84 86 86 83 83 82 81 82 81 77 72
148 152 147 144 146 142 151 180 133 127 120 120 117 111 105 102 105 109 112 109 109 97 90 89 100 99 93 93 92 88 88 94 97 94 92 90 90 84 83 87 90 90 92 90 89 86 80 78 88 94 91 87 87 87 87 85 85 83 74 72 71 71 69 62 51 42 85 94 84 81 86 83 86 85 86 88 87 87 88 85 81 78 75 73 71
145 151 150 150 150 138 174 181 132 127 121 119 115 111 108 104 99 105 103 107 101 93 96 96 101 101 100 95 91 89 93 97 102 102 100 99 91 94 99 103 98 90 88 92 92 87 87 89 89 87 90 92 91 91 90 90 88 87 79 74 71 69 69 66 61 50 67 82 82 83 83 90 88 93 94 91 89 85 81 79 79 77 76 80 86
155 155 154 155 141 143 185 172 136 127 123 120 114 113 111 107 101 98 101 105 108 103 96 97 102 100 99 98 92 92 94 99 99 101 103 105 105 95 102 96 96 99 98 94 91 88 90 92 93 93 92 93 94 93 93 93 91 88 82 76 74 70 65 55 56 105 86 83 85 86 87 86 87 85 83 85 84 83 82 86 84 80 74 68 72
157 154 155 158 147 151 189 159 139 133 128 124 120 119 116 110 107 101 100 102 106 101 97 95 101 104 102 97 95 94 97 104 107 105 102 103 101 99 105 109 110 99 94 92 90 92 94 92 90 94 93 92 93 92 92 93 91 88 83 76 74 73 71 73 73 72 85 82 81 79 71 80 83 82 83 83 83 79 72 64 71 77 78 72 78
158 158 158 147 145 153 178 151 139 134 129 125 125 121 118 114 111 109 108 109 101 108 105 101 101 104 107 103 98 96 100 104 110 109 111 107 103 104 101 99 96 95 96 96 93 94 97 95 96 97 97 96 95 94 92 93 89 84 81 75 71 64 53 47 79 84 86 90 92 91 84 84 86 84 85 86 86 86 82 83 86 87 83 81 77
162 159 161 141 140 152 170 139 138 136 131 129 125 121 115 117 117 118 116 101 96 99 99 101 105 107 108 105 100 100 103 108 112 114 116 108 100 105 100 95 92 95 93 92 93 92 93 95 96 96 93 91 89 90 91 88 85 82 76 73 69 57 38 54 82 87 83 82 79 78 82 84 86 93 96 96 92 88 90 90 87 84 85 85 81
161 159 157 153 156 140 147 133 130 135 137 128 126 121 120 121 124 125 123 119 108 106 99 97 93 100 105 107 105 105 108 114 118 115 107 96 95 94 104 100 102 104 100 93 91 95 95 97 97 98 96 94 95 93 91 91 87 82 79 76 71 62 40 62 93 90 88 88 88 84 84 83 86 87 83 81 83 85 87 86 83 83 86 88 86
162 157 161 170 157 142 134 129 131 134 132 129 126 124 127 129 133 133 133 119 106 107 105 104 106 102 104 108 108 108 112 116 118 119 104 105 110 106 91 99 103 93 92 94 94 94 96 98 98 97 97 97 99 99 94 90 86 82 76 73 69 63 92 83 91 89 88 85 83 85 86 88 89 88 86 85 85 86 85 86 87 87 84 80 86
164 159 165 170 160 162 130 131 133 134 123 128 127 133 138 143 141 141 136 132 119 121 114 108 111 110 108 109 113 113 113 116 120 116 113 117 109 106 107 108 102 103 97 95 95 96 96 95 96 95 97 100 101 99 97 90 86 81 77 70 60 34 350 91 88 90 86 88 89 88 91 90 88 90 94 94 94 92 91 89 86 83 82 86 87
164 163 166 173 167 163 164 138 135 128 131 126 136 140 148 149 149 144 143 139 131 119 113 117 118 121 119 116 119 118 118 117 114 89 45 104 112 99 94 94 102 99 103 101 99 98 96 93 95 99 100 104 104 103 93 90 86 80 74 69 55 36 7 35 92 95 91 84 83 86 91 89 88 90 90 92 93 94 94 92 89 89 90 94 96
158 166 170 172 173 175 171 168 147 136 141 140 144 146 148 145 151 146 147 141 129 123 127 126 124 126 119 124 120 114 109 113 112 87 48 77 97 94 98 100 107 112 108 104 101 97 92 94 99 104 105 103 106 100 92 88 86 83 81 79 62 51 24 14 93 84 83 72 71 86 97 103 99 101 100 103 101 91 86 88 87 84 93 88 82
164 172 169 173 179 185 182 174 166 171 165 148 143 143 148 146 136 140 134 126 126 91 83 94 94 99 115 116 110 104 110 107 97 73 72 84 89 89 91 122 112 100 99 99 99 95 97 101 103 105 109 106 101 92 86 84 82 83 84 79 65 66 43 19 93 94 90 94 90 93 95 93 103 101 97 94 97 103 100 95 90 96 92 101 109
171 176 174 174 185 189 190 181 184 178 178 172 173 151 145 135 131 129 128 122 108 85 90 97 102 112 119 122 110 98 89 84 76 75 67 77 88 84 69 53 112 101 101 101 99 100 107 108 109 104 104 106 95 81 78 77 79 83 81 76 86 69 15 106 86 100 111 100 98 101 98 94 96 98 93 91 91 87 81 82 96 106 115 110 96
172 179 179 183 180 185 195 189 188 191 184 180 174 171 139 137 134 130 123 120 108 99 97 90 102 113 111 113 110 115 116 102 96 88 70 72 81 96 74 29 89 108 106 106 109 114 115 114 113 114 110 104 86 77 74 73 73 76 73 90 96 195 139 88 101 100 93 89 100 102 114 116 107 102 109 108 104 97 102 107 108 102 91 89 98
173 182 190 187 181 183 192 191 196 196 190 186 183 179 138 136 136 120 119 112 113 110 102 104 106 113 124 121 141 149 144 139 152 126 96 97 102 105 99 63 45 85 105 115 121 125 124 123 122 117 112 97 83 73 63 68 68 68 71 93 216 206 77 100 109 104 99 110 111 114 123 116 114 111 103 108 106 106 106 102 104 112 116 117 118
181 185 192 188 186 187 192 194 198 198 195 190 190 178 152 185 176 165 167 145 125 131 149 150 142 135 135 157 166 156 153 157 138 143 123 126 116 107 106 78 68 75 110 125 130 130 130 126 121 125 116 113 128 122 101 75 59 64 74 278 241 86 114 112 113 114 120 119 124 121 119 129 128 115 115 106 94 98 107 114 106 104 101 105 102
186 187 191 191 188 187 193 195 194 197 197 198 195 185 178 191 191 178 166 178 163 175 171 163 172 162 170 175 172 160 158 154 151 98 99 81 102 102 97 84 76 82 102 119 130 132 127 119 116 112 112 126 147 131 130 135 115 126 186 217 125 125 121 134 142 135 122 131 132 146 179 126 116 122 108 106 120 116 115 110 113 117 129 122 107
186 189 188 192 191 192 193 196 196 192 194 199 198 192 187 198 195 187 181 188 181 189 183 182 179 178 178 186 176 150 162 155 91 115 125 146 118 90 79 80 74 63 100 116 87 79 87 83 87 120 141 167 150 146 143 147 153 168 177 188 173 151 166 169 166 155 129 129 138 140 148 140 120 121 119 124 128 122 115 124 118 117 111 117 123
186 185 190 192 197 195 194 196 197 195 198 198 200 196 192 198 196 197 195 193 192 195 190 187 181 181 186 193 168 156 172 156 167 166 185 161 164 165 167 174 166 157 182 150 160 148 174 158 157 203 165 162 159 150 163 167 170 180 183 178 171 179 187 190 195 174 142 144 146 204 288 249 139 144 137 140 129 118 138 125 126 128 127 138 139
182 190 194 193 197 199 198 197 195 199 199 200 202 194 190 198 200 201 199 200 196 197 197 193 181 186 192 187 169 173 181 173 173 179 184 166 176 176 181 182 177 179 187 184 181 182 177 175 184 193 160 134 90 106 175 206 190 193 185 174 192 193 200 204 196 188 176 160 157 231 300 258 159 164 159 134 127 138 141 139 135 140 151 155 106
191 199 192 196 195 199 200 201 200 199 202 202 201 201 201 199 202 203 203 204 200 199 201 201 195 186 192 185 189 187 189 183 179 184 187 182 179 183 183 183 188 188 196 201 194 176 187 184 190 172 143 140 140 139 138 356 265 206 186 187 202 210 208 203 201 202 197 182 155 303 260 265 180 161 139 141 143 155 160 158 150 151 170 165 151
200 201 196 196 194 198 199 200 202 201 203 203 203 202 205 208 205 193 203 210 207 205 203 206 199 197 198 197 203 194 193 189 185 187 188 195 187 183 181 182 189 188 189 199 194 182 189 193 188 155 164 167 172 183 180 187 186 220 206 205 206 211 217 208 206 210 206 208 188 194 235 240 203 199 170 164 162 152 162 163 163 168 197 173 168
207 205 203 202 199 199 197 199 200 202 202 202 208 208 206 209 208 204 207 195 210 211 208 202 206 208 200 206 203 202 199 196 190 190 190 195 188 185 188 191 187 183 186 192 189 188 191 196 191 188 189 193 186 195 196 201 212 205 223 214 213 220 219 214 212 215 214 211 205 185 236 256 256 183 169 164 165 177 176 180 192 176 189 190 179
210 207 207 208 205 200 202 202 201 201 202 201 205 209 208 209 211 209 209 187 212 216 213 207 210 210 209 207 212 215 205 202 193 194 192 195 190 187 195 193 193 188 191 195 193 198 198 195 197 195 196 200 204 196 212 202 217 221 224 220 223 228 221 221 219 210 214 214 208 192 191 253 276 216 208 191 199 204 175 179 183 191 206 189 187
212 212 210 210 206 203 205 205 205 204 204 206 206 210 209 212 214 211 211 203 210 212 215 216 216 212 212 209 213 220 212 207 199 194 198 196 196 194 200 193 198 194 198 201 187 203 201 208 202 205 206 206 211 190 219 214 212 211 215 224 215 227 227 232 232 235 225 219 216 220 189 221 265 267 228 219 233 199 189 212 202 206 205 198 197
213 213 213 212 209 209 208 207 208 206 210 210 206 208 208 214 214 218 214 204 204 213 213 218 218 216 212 210 214 214 217 210 205 196 203 199 200 200 199 197 204 193 198 198 188 198 206 200 185 213 215 217 211 205 214 226 216 214 208 216 219 224 225 225 232 233 236 235 238 230 220 209 228 262 253 212 211 204 204 225 209 214 208 201 200
213 214 212 212 214 211 213 212 210 206 209 211 209 210 209 209 214 215 218 210 199 205 215 217 220 218 184 192 207 213 206 215 206 205 204 205 202 201 204 203 204 193 193 185 178 182 192 192 188 193 206 214 216 211 205 227 221 213 210 214 216 222 228 235 230 240 240 235 237 253 239 217 217 218 244 250 220 212 215 214 230 222 216 207 207
204 207 211 213 210 212 210 213 215 211 209 215 213 211 211 205 211 221 217 213 211 208 203 210 211 216 217 203 195 194 201 210 210 206 205 209 206 209 210 205 200 186 185 179 194 197 204 202 199 197 206 214 215 215 208 216 219 211 213 206 215 217 216 220 222 228 236 231 224 226 233 228 220 218 215 228 253 225 222 227 235 227 214 215 214
206 207 210 210 206 209 209 214 208 216 207 215 213 217 212 208 204 213 218 217 216 219 215 206 201 200 206 218 201 197 196 198 200 199 200 199 199 210 216 214 195 186 190 192 199 202 207 205 199 209 211 217 221 215 212 217 214 211 214 206 212 213 219 218 212 218 228 229 228 222 219 221 226 224 219 222 223 235 238 241 225 223 219 222 219
211 210 210 207 210 209 208 215 208 214 216 218 219 219 218 215 205 204 208 212 217 219 218 217 216 213 216 217 201 202 203 203 202 205 207 202 200 203 211 211 191 188 196 190 197 205 207 208 207 210 215 220 223 223 215 223 219 218 216 211 215 215 223 219 212 216 220 226 232 236 232 229 220 217 219 225 227 217 219 226 222 214 221 226 222
211 211 207 206 213 210 211 216 217 214 216 216 217 222 222 220 217 211 207 201 209 216 224 225 218 215 218 219 217 207 207 210 207 200 205 207 210 213 214 205 186 194 193 193 197 205 204 207 212 211 222 227 223 230 226 223 221 223 225 227 226 226 232 227 219 223 218 227 232 236 242 240 243 244 233 230 236 243 208 220 227 221 219 227 225
216 217 213 208 211 210 211 217 219 219 220 219 217 215 220 227 225 221 210 212 211 215 217 216 222 222 222 218 215 214 207 208 208 206 215 213 212 209 199 180 172 190 204 205 208 205 210 209 219 213 215 224 226 226 232 226 229 230 234 232 240 244 252 256 250 249 243 232 231 235 241 252 242 234 234 232 240 251 261 224 227 232 231 226 235
219 216 217 215 211 212 212 215 218 220 220 221 222 225 224 220 222 223 223 225 232 231 228 222 223 223 219 221 216 207 200 203 202 209 226 234 228 217 209 192 183 194 206 206 206 203 206 211 217 212 204 217 229 229 233 213 223 251 262 251 245 248 254 252 258 251 245 245 238 227 221 238 246 251 251 246 245 254 260 261 231 222 228 228 231
220 218 216 213 213 213 214 219 220 220 221 222 221 222 224 219 220 217 214 213 213 217 226 232 221 219 217 213 211 213 210 202 210 213 212 226 235 230 221 196 200 208 211 211 209 202 198 196 207 210 201 210 244 240 218 186 206 260 294 288 275 272 264 264 257 254 256 249 248 242 233 227 229 240 246 249 247 245 248 259 261 250 249 232 232
220 217 212 214 213 212 208 218 214 216 219 219 219 219 220 223 225 225 220 211 209 214 220 211 206 210 207 205 212 208 206 204 214 217 213 203 210 221 218 210 201 213 220 223 220 213 201 177 170 182 205 212 222 208 159 131 161 274 249 260 267 257 256 250 253 251 245 246 244 243 241 233 225 226 233 235 237 232 230 231 243 254 250 265 244
217 212 216 215 214 212 214 215 211 212 217 220 220 221 224 222 220 222 224 216 212 214 219 224 228 232 232 228 212 207 209 214 212 207 207 206 217 216 204 203 198 208 222 227 212 215 181 184 181 201 205 217 226 178 151 133 214 225 233 269 257 244 240 233 236 245 239 236 236 237 239 236 230 222 218 225 231 229 228 226 222 228 239 239 245
223 214 220 217 214 212 217 214 211 209 213 217 223 225 225 226 224 228 227 232 232 231 228 224 226 230 236 238 236 232 227 226 210 207 208 220 223 207 202 200 200 199 211 222 216 214 208 206 202 211 203 207 224 171 174 193 231 192 172 353 274 285 240 223 231 238 225 224 223 231 231 233 233 222 216 218 229 230 231 228 230 229 229 241 241
223 221 212 213 215 218 218 214 213 211 213 212 223 228 227 227 225 232 230 234 237 242 243 242 237 231 234 232 237 231 213 219 212 204 215 220 211 214 209 202 200 192 196 204 206 213 204 206 200 206 206 204 206 213 193 202 222 157 226 210 268 316 286 253 237 231 214 217 215 225 222 229 229 222 221 228 229 221 226 220 229 231 230 228 223
218 217 210 208 213 217 215 210 211 210 210 209 214 223 220 219 219 181 198 125 317 230 218 232 220 224 228 222 223 223 224 209 207 210 208 223 217 214 216 202 196 200 205 210 210 208 202 201 193 193 199 212 213 211 196 203 216 217 219 132 211 241 233 267 341 273 183 211 221 222 225 227 225 222 215 230 235 237 227 224 224 223 226 223 220
220 214 214 216 216 217 212 207 210 209 206 204 204 212 214 217 201 197 193 206 229 223 230 235 232 227 227 229 222 219 232 244 246 231 215 212 218 222 222 221 207 202 205 217 219 203 190 189 198 204 207 207 217 202 209 193 214 218 224 226 208 234 216 162 55 267 139 226 224 223 228 227 218 207 224 236 234 233 231 226 219 230 226 223 223
208 192 211 218 217 220 209 204 206 206 200 197 197 207 210 213 213 213 214 216 225 234 233 237 239 241 243 244 246 246 245 242 239 228 217 206 215 223 224 220 216 209 207 218 225 215 208 211 207 210 215 209 207 226 212 188 200 232 226 233 243 226 200 229 248 278 281 197 216 230 233 229 218 214 227 231 234 235 236 227 223 232 233 223 228
210 202 205 200 204 205 199 198 203 201 190 197 200 203 206 208 211 214 218 223 226 235 235 237 239 246 245 245 246 248 248 246 247 245 247 244 232 229 215 215 218 224 201 211 215 216 217 209 201 207 213 214 205 216 215 182 198 227 212 229 235 247 230 250 298 263 278 290 266 220 228 243 218 226 229 231 225 225 227 217 214 222 226 227 229
146 178 171 174 183 186 187 188 193 189 188 195 197 201 206 206 207 211 218 225 231 237 241 242 239 242 247 250 249 249 245 242 244 247 244 242 235 233 238 232 228 223 209 219 218 215 217 215 210 209 210 211 208 212 221 228 214 227 163 217 223 230 228 229 229 182 245 266 268 253 260 190 228 237 233 229 230 223 226 229 231 228 233 230 225
48 65 96 123 140 153 163 168 172 179 186 193 197 199 203 205 207 212 217 223 228 239 245 244 243 249 252 253 253 252 251 247 246 248 250 256 259 249 241 237 224 226 223 220 216 213 213 213 214 211 208 214 215 216 221 228 218 209 194 201 201 224 237 249 235 226 239 227 260 268 269 269 264 227 214 228 229 230 230 232 231 231 226 223 222
70 81 89 105 130 146 157 158 162 171 180 188 193 196 201 204 211 215 221 228 233 239 238 239 237 237 243 247 247 249 250 250 246 243 239 243 245 245 247 246 240 226 222 210 218 221 224 225 224 223 215 203 203 206 220 233 237 233 229 220 212 195 202 214 224 218 223 232 247 258 257 244 254 272 228 217 224 227 224 223 224 220 220 223 223